This is the latest recevied weather packets stored in our database for station/object W0CHP-13. If no packets are shown the sender has not sent any weather packets the latest 10 day(s).
| Time | Temp. | Humidity | Pressure | Rain* | Wind** | Luminosity | Snow |
|---|---|---|---|---|---|---|---|
| 1777607237 | 6.11° C | 51% | 1014.8 hPa | 0 mm | - | 0 W/m² | - |
| 1777606639 | 6.11° C | 50% | 1014.9 hPa | 0 mm | - | 0 W/m² | - |
| 1777606037 | 6.67° C | 49% | 1015.1 hPa | 0 mm | - | 0 W/m² | - |
| 1777605435 | 6.67° C | 48% | 1014.9 hPa | 0 mm | - | 0 W/m² | - |
| 1777604837 | 6.67° C | 47% | 1015.1 hPa | 0 mm | - | 0 W/m² | - |
| 1777604236 | 7.22° C | 46% | 1015.1 hPa | 0 mm | - | 0 W/m² | - |
| 1777603638 | 7.22° C | 46% | 1015.1 hPa | 0 mm | - | 0 W/m² | - |
| 1777603036 | 7.78° C | 45% | 1015.1 hPa | 0 mm | - | 0 W/m² | - |
| 1777602438 | 7.78° C | 45% | 1015.1 hPa | 0 mm | - | 0 W/m² | - |
| 1777601837 | 7.78° C | 44% | 1014.8 hPa | 0 mm | - | 0 W/m² | - |
| 1777601235 | 7.78° C | 44% | 1014.9 hPa | 0 mm | - | 0 W/m² | - |
| 1777600637 | 7.78° C | 43% | 1015 hPa | 0 mm | - | 0 W/m² | - |
| 1777600035 | 8.33° C | 43% | 1014.8 hPa | 0 mm | - | 0 W/m² | - |
| 1777599438 | 8.33° C | 43% | 1014.8 hPa | 0 mm | - | 0 W/m² | - |
| 1777598836 | 8.33° C | 43% | 1014.8 hPa | 0 mm | - | 0 W/m² | - |
| 1777598238 | 8.89° C | 42% | 1014.6 hPa | 0 mm | - | 1 W/m² | - |
| 1777597636 | 8.89° C | 42% | 1014.4 hPa | 0 mm | - | 3 W/m² | - |
| 1777597038 | 8.89° C | 42% | 1014.6 hPa | 0 mm | - | 6 W/m² | - |
| 1777596437 | 8.89° C | 41% | 1014.4 hPa | 0 mm | - | 10 W/m² | - |
| 1777595835 | 8.89° C | 42% | 1014.3 hPa | 0 mm | - | 17 W/m² | - |
| 1777595237 | 8.89° C | 40% | 1014.4 hPa | 0 mm | - | 20 W/m² | - |
| 1777594635 | 9.44° C | 40% | 1014.4 hPa | 0 mm | - | 26 W/m² | - |
| 1777594038 | 10° C | 40% | 1014.1 hPa | 0 mm | - | 32 W/m² | - |
| 1777593436 | 10° C | 38% | 1014.1 hPa | 0 mm | - | 46 W/m² | - |
| 1777592838 | 10.56° C | 37% | 1014.1 hPa | 0 mm | - | 71 W/m² | - |
* Rain latest hour (hover to see other rain measurements)
** Current wind speed in m/s (hover to see current wind gust speed)